Wind_Speed
15 14 13 13 14 13 11 10 10 9 8 8 8 8 8 9 9 9 8 8 9 9 9 9 9 9 9 11 11 11 11 11 11 11 11 11 10 11 11 10 10 9 9 9 9 9 9 8 8
15 14 14 13 15 12 11 11 10 10 9 8 8 8 8 8 8 8 8 8 8 8 9 9 9 9 9 10 10 11 11 11 10 10 10 10 10 10 10 10 9 9 9 9 9 9 8 8 7
15 14 13 15 14 13 12 11 11 11 10 9 8 8 8 8 7 7 8 8 8 8 8 9 10 9 9 9 11 11 11 11 10 10 9 9 9 9 10 9 9 9 9 8 8 7 7 7 6
14 14 14 14 13 12 12 11 11 11 10 9 9 8 8 8 7 7 7 7 8 8 8 9 10 9 9 9 10 11 10 10 10 10 9 9 8 8 9 8 8 8 8 8 7 6 6 6 6
14 14 15 13 12 12 12 12 11 11 10 9 9 9 8 8 7 8 8 8 8 9 9 9 9 9 9 9 11 11 10 10 10 9 9 8 8 8 7 7 7 7 7 7 6 6 5 5 5
13 15 13 13 12 12 11 12 12 11 11 10 9 9 8 8 7 8 8 8 9 9 9 9 9 9 9 9 10 11 11 10 9 9 7 7 7 7 7 7 7 6 6 5 5 5 5 4 4
13 13 12 12 12 12 12 11 11 12 11 10 10 9 8 8 7 7 8 8 9 9 9 9 9 9 9 9 10 10 10 10 9 8 7 7 7 6 6 6 6 6 5 4 4 4 4 4 3
11 12 11 11 12 12 12 12 11 12 11 11 10 9 8 8 7 7 8 8 8 8 8 9 9 9 8 9 9 10 9 9 9 8 7 7 6 6 5 5 5 5 4 3 3 4 4 4 3
10 11 10 10 11 11 12 13 12 12 12 11 10 10 9 8 8 7 7 7 8 8 8 8 8 8 8 9 9 9 8 8 8 8 8 7 7 6 5 5 5 4 4 3 3 4 4 3 3
10 10 9 10 10 11 11 12 12 12 12 12 11 10 10 9 9 8 8 7 7 7 7 6 7 7 8 8 8 9 8 6 8 8 8 7 7 6 5 5 4 4 3 3 4 4 3 3 3
9 8 8 9 9 9 10 11 11 12 12 12 12 11 10 10 10 9 8 7 6 6 6 5 5 6 6 7 7 7 7 7 7 8 7 6 6 5 5 4 4 4 4 4 4 4 4 3 2
7 7 7 8 8 8 9 9 11 12 11 11 12 11 10 10 9 9 8 7 6 6 5 5 4 4 5 7 6 6 7 7 8 7 7 6 5 5 4 4 4 3 3 2 2 2 2 2 1
6 6 6 7 7 7 8 8 9 10 10 11 11 11 10 9 9 8 7 6 5 5 4 3 3 4 4 5 6 6 7 7 7 7 6 6 5 5 4 4 3 3 2 2 1 1 1 1 1
5 5 5 6 6 6 7 7 8 8 9 9 10 10 10 9 8 7 7 6 5 5 4 3 3 3 4 4 5 6 6 6 6 5 5 5 4 5 4 4 3 3 2 1 1 0 0 0 1
3 3 3 4 4 5 5 6 6 7 7 7 8 9 9 9 8 7 6 5 5 4 4 3 3 3 3 4 4 4 5 5 5 5 5 5 4 4 3 2 2 2 2 1 0 1 1 1 2
2 2 1 1 2 3 4 4 4 6 6 6 6 7 7 7 7 6 5 5 4 3 3 3 3 3 4 4 4 4 4 5 5 5 4 4 3 3 2 2 2 2 1 0 1 2 2 2 3
2 2 3 2 1 1 2 2 3 4 5 5 4 4 5 5 4 4 4 4 3 2 2 2 2 2 3 3 3 3 3 4 5 4 4 3 3 2 1 2 1 0 1 1 2 3 3 4 4
5 4 4 4 4 2 1 1 2 3 4 4 4 4 3 3 3 3 3 3 2 2 1 1 1 2 2 2 3 3 3 3 4 4 4 4 3 2 1 1 1 2 3 3 3 4 4 4 4
7 6 6 6 6 4 3 3 3 4 4 4 5 5 3 3 3 2 2 2 2 1 1 0 1 1 2 2 2 3 3 3 4 4 4 4 3 2 1 2 2 3 4 4 4 4 4 5 5
8 8 8 8 8 7 5 5 5 5 5 4 5 6 5 4 4 4 3 3 3 2 2 2 2 2 2 2 3 3 4 4 4 3 4 4 3 3 2 2 3 4 4 4 5 5 5 6 6
10 10 10 10 10 9 7 6 6 6 6 7 7 7 7 6 6 6 5 5 5 4 4 4 3 4 4 4 4 4 4 5 5 5 4 4 4 4 4 4 5 5 5 6 6 6 7 7 7
11 12 11 11 10 10 9 8 8 8 8 8 9 8 8 7 8 7 7 7 6 6 6 6 5 5 5 6 6 6 6 6 7 6 6 5 6 6 5 5 6 6 7 7 8 7 8 8 8
13 13 12 13 12 11 11 10 10 10 10 9 10 10 9 8 8 8 8 8 9 8 8 8 7 7 7 7 7 7 7 8 8 7 7 7 7 7 7 7 7 7 8 8 8 8 9 9 9
14 13 13 12 11 12 12 11 10 11 11 10 10 10 10 9 9 10 10 10 10 10 10 10 9 9 9 9 8 9 9 9 9 9 9 9 9 9 9 9 9 9 9 9 9 10 10 10 10
14 12 11 11 11 12 12 11 12 12 11 11 11 12 11 11 11 11 12 12 12 12 12 11 11 11 11 11 10 10 10 11 11 11 11 11 10 11 11 11 11 11 11 11 11 11 11 11 11
15 13 12 11 11 12 13 12 12 12 12 12 12 12 13 13 12 12 12 13 14 14 14 14 13 13 13 12 12 12 12 12 13 13 13 13 13 13 13 13 13 14 14 14 13 13 13 13 13
16 15 14 14 13 13 13 13 13 13 13 13 12 12 13 14 13 13 12 13 14 15 15 15 15 14 14 15 14 14 14 14 15 15 15 15 15 15 14 15 15 16 16 16 16 15 15 15 14
18 17 16 14 13 13 13 13 13 14 14 14 14 14 15 15 14 14 14 14 15 15 15 16 16 16 16 16 16 16 17 17 17 17 17 17 18 17 17 17 17 18 19 19 18 17 17 17 17
18 18 17 16 16 14 14 14 15 15 14 15 15 15 15 15 16 17 17 17 17 16 16 16 16 16 17 18 19 19 18 19 19 19 19 19 19 20 20 20 20 20 20 20 20 20 20 20 19
19 18 17 17 17 17 16 17 19 16 15 15 16 17 17 17 18 18 19 19 19 19 18 18 18 18 19 20 20 20 20 21 21 21 21 21 21 22 22 22 22 22 22 22 22 22 22 22 21
Wind_Direction
96 94 92 93 89 84 89 89 91 90 91 92 95 98 103 102 103 106 105 110 119 124 124 127 131 131 129 129 130 128 126 122 121 119 121 120 122 121 117 118 118 118 119 117 119 120 119 118 115
93 92 91 91 86 86 86 85 86 88 89 91 92 96 100 103 103 106 108 117 127 132 132 134 136 133 129 132 135 133 133 130 127 125 124 123 124 122 120 120 120 119 119 118 119 121 121 119 117
90 89 88 86 88 89 85 82 80 82 84 85 86 91 98 103 106 107 114 124 129 130 133 138 139 138 136 140 141 138 135 134 132 131 128 127 127 124 121 121 122 121 119 119 121 122 123 124 123
90 88 83 83 88 87 85 81 76 76 80 80 83 88 99 100 104 105 115 123 130 129 129 135 138 143 144 144 145 138 139 138 135 135 133 131 129 126 123 125 128 128 125 125 124 125 126 127 124
88 84 77 80 83 81 81 79 72 72 74 77 82 84 93 100 101 102 113 125 128 127 130 132 138 145 150 146 145 142 140 138 137 135 133 131 132 132 128 130 130 128 128 127 128 128 129 126 125
88 83 82 80 79 77 77 74 70 70 71 76 80 81 82 92 99 103 113 124 129 129 129 132 139 145 151 148 148 147 143 142 141 138 136 135 138 139 134 134 128 126 126 129 128 126 121 119 119
91 89 86 83 77 73 74 72 69 70 69 71 74 78 78 83 95 105 112 122 129 133 131 134 139 145 150 152 150 150 147 148 148 147 145 140 145 144 140 141 134 130 127 130 131 131 125 123 123
91 89 84 84 80 73 72 70 68 74 72 70 73 77 79 82 93 107 112 122 126 133 134 138 140 145 150 154 152 152 154 155 152 148 148 145 146 142 145 144 136 130 126 132 135 141 139 129 126
91 87 86 85 83 76 72 69 68 71 70 68 67 74 76 80 86 100 110 119 123 125 129 130 140 142 150 156 157 156 156 157 154 148 143 142 143 142 138 134 136 134 128 125 131 134 141 143 138
94 93 90 85 82 78 73 69 69 67 66 64 63 69 74 79 84 92 104 112 123 126 124 129 131 143 153 160 163 163 159 151 152 146 141 139 140 139 135 132 125 120 111 105 109 119 128 135 135
98 98 92 84 80 75 71 68 69 67 64 61 62 66 70 75 82 89 93 100 110 121 130 132 133 145 154 160 159 159 157 154 156 152 148 145 142 139 132 128 123 119 107 102 104 100 102 109 110
100 96 91 85 81 74 70 68 68 66 64 61 62 63 67 74 79 85 90 96 103 109 123 130 137 149 160 170 170 163 157 157 158 157 154 149 143 142 135 132 131 130 117 106 101 99 109 110 108
102 98 94 90 82 74 68 66 65 65 61 60 63 62 64 72 75 79 80 83 91 99 110 123 129 149 161 168 173 165 163 163 167 168 164 158 147 147 138 136 134 129 122 106 98 106 117 122 146
108 95 89 85 78 74 68 66 64 61 59 57 60 58 57 64 68 71 75 76 78 78 81 100 122 144 160 176 182 178 170 168 170 171 176 169 155 145 138 128 125 121 118 98 77 99 251 225 235
123 100 82 80 79 73 70 63 61 57 59 55 56 58 55 55 56 59 63 67 70 68 71 95 100 129 149 165 173 176 178 177 177 177 172 170 162 153 151 133 119 115 109 84 18 290 275 272 276
160 120 95 48 67 67 73 60 56 51 49 52 52 54 51 48 46 45 50 54 56 60 75 92 94 109 124 142 150 155 165 171 171 166 168 172 176 174 159 160 140 135 134 326 315 303 289 290 291
185 202 223 269 310 329 71 52 32 28 29 38 38 39 41 35 32 33 34 40 49 54 71 98 112 114 128 146 159 159 166 171 178 178 179 180 177 184 176 155 147 185 293 306 306 303 293 295 296
212 214 228 255 270 276 279 306 340 350 7 18 17 15 21 14 11 8 12 20 25 30 47 114 131 144 157 157 163 176 178 182 187 189 184 177 178 189 190 177 238 299 308 304 301 303 301 297 296
218 216 232 253 264 270 275 282 300 317 332 344 349 348 345 338 341 326 317 335 350 6 9 197 173 177 191 195 186 182 183 189 190 194 189 188 190 196 208 244 282 300 307 308 304 302 298 296 300
227 228 237 251 262 263 269 278 284 295 298 308 318 321 316 304 304 297 288 299 297 289 287 283 265 247 233 230 225 215 208 205 209 206 201 205 208 217 240 272 290 302 306 308 309 304 302 299 298
238 240 241 250 261 264 269 279 279 286 285 288 297 303 303 298 298 301 294 289 292 284 282 282 273 261 259 255 249 244 230 222 220 216 219 229 237 248 265 276 282 289 300 307 307 303 300 298 298
247 248 248 252 257 262 265 264 273 279 283 282 281 282 290 291 293 292 288 284 283 281 282 277 271 266 262 261 256 252 243 231 228 227 233 243 251 259 269 277 282 285 293 299 301 300 301 301 300
246 251 255 256 255 258 265 264 268 273 274 275 272 270 276 278 283 284 283 278 276 277 277 273 268 265 263 264 261 257 247 240 237 237 243 249 254 261 271 280 286 290 293 296 297 296 305 305 302
247 253 259 261 258 260 261 261 262 265 267 267 267 267 268 271 277 278 279 277 275 274 273 272 269 266 264 265 265 260 254 249 246 246 251 253 255 261 269 276 282 288 291 292 294 296 298 298 298
246 250 260 264 263 265 265 263 258 259 258 263 265 265 266 271 275 275 274 272 273 272 272 272 271 269 266 267 265 263 262 258 253 251 253 257 262 264 267 272 278 283 287 288 289 289 290 291 293
244 243 245 250 257 266 271 267 264 261 258 260 263 261 262 268 273 274 273 271 271 272 272 271 272 270 264 264 263 264 262 261 258 256 257 262 267 269 271 272 275 278 281 283 286 285 285 287 289
241 241 242 249 252 254 258 265 271 269 264 260 262 262 263 266 268 269 269 269 271 274 273 270 271 269 264 262 261 261 260 261 259 260 262 265 267 270 272 273 276 278 278 279 281 283 282 283 284
239 240 242 244 252 257 264 268 270 270 263 260 263 264 264 267 266 267 268 270 272 274 276 275 272 268 266 264 263 264 262 263 262 263 267 268 268 270 273 276 277 281 281 277 276 278 281 281 282
240 242 245 247 248 254 261 265 266 271 267 265 263 264 265 266 266 266 269 272 273 274 274 274 274 271 267 264 264 268 269 268 268 268 269 270 270 272 274 276 278 281 283 282 277 276 278 280 282
244 244 247 250 255 257 261 263 266 269 270 268 265 265 267 267 268 269 270 272 273 272 272 272 272 271 268 266 268 269 269 271 270 269 270 273 275 277 277 278 279 281 282 282 281 278 278 278 278
Height
5901 5902 5902 5903 5904 5904 5903 5903 5902 5901 5900 5899 5899 5898 5898 5898 5899 5901 5898 5897 5897 5897 5896 5897 5898 5898 5899 5899 5900 5901 5901 5902 5902 5903 5904 5904 5905 5905 5906 5906 5907 5907 5907 5908 5908 5908 5908 5909 5909
5904 5904 5905 5905 5906 5906 5905 5904 5903 5902 5901 5900 5899 5899 5899 5898 5898 5898 5898 5898 5898 5897 5897 5898 5898 5899 5899 5900 5901 5902 5902 5903 5904 5904 5905 5905 5906 5906 5907 5907 5908 5908 5908 5909 5909 5909 5910 5910 5910
5906 5906 5907 5907 5908 5908 5907 5906 5904 5903 5902 5901 5900 5900 5900 5899 5899 5898 5898 5898 5898 5898 5897 5898 5899 5900 5900 5901 5902 5903 5903 5904 5905 5906 5906 5906 5907 5907 5908 5908 5909 5909 5909 5910 5910 5910 5911 5911 5911
5908 5909 5910 5911 5909 5909 5908 5907 5905 5904 5903 5902 5901 5901 5900 5899 5899 5899 5899 5899 5899 5898 5898 5899 5900 5901 5901 5902 5902 5903 5904 5905 5906 5907 5907 5907 5908 5908 5909 5909 5910 5910 5910 5911 5911 5911 5911 5911 5912
5910 5911 5913 5913 5911 5910 5909 5908 5907 5906 5904 5903 5903 5902 5901 5900 5900 5899 5899 5900 5900 5900 5899 5900 5901 5902 5902 5902 5903 5904 5905 5906 5907 5907 5908 5908 5909 5909 5910 5910 5911 5911 5911 5911 5912 5912 5912 5912 5912
5913 5913 5916 5914 5913 5912 5910 5909 5908 5907 5905 5904 5904 5903 5902 5901 5900 5900 5900 5900 5900 5901 5901 5901 5901 5902 5903 5903 5904 5905 5906 5907 5907 5908 5909 5909 5910 5910 5910 5911 5911 5912 5912 5912 5912 5912 5913 5913 5913
5915 5916 5916 5916 5915 5913 5912 5911 5909 5908 5907 5906 5905 5904 5903 5902 5902 5901 5901 5901 5901 5902 5902 5902 5902 5903 5903 5904 5905 5906 5907 5907 5908 5909 5910 5910 5911 5911 5911 5912 5912 5912 5912 5913 5913 5913 5913 5913 5913
5917 5918 5918 5918 5916 5915 5914 5912 5911 5909 5908 5907 5906 5905 5904 5903 5903 5902 5902 5902 5902 5903 5903 5903 5903 5904 5904 5905 5905 5906 5907 5908 5909 5909 5910 5911 5911 5911 5912 5912 5913 5913 5913 5913 5913 5913 5913 5914 5914
5918 5921 5920 5919 5918 5917 5915 5914 5913 5911 5910 5908 5907 5907 5906 5905 5904 5904 5904 5904 5904 5904 5904 5904 5904 5905 5905 5905 5906 5907 5908 5909 5909 5910 5910 5911 5912 5912 5912 5912 5913 5913 5913 5913 5913 5913 5913 5914 5914
5920 5922 5921 5920 5919 5918 5916 5916 5914 5913 5912 5910 5909 5908 5907 5906 5906 5905 5905 5905 5905 5905 5906 5906 5906 5906 5906 5906 5906 5908 5908 5909 5910 5911 5911 5912 5912 5912 5913 5913 5913 5913 5913 5913 5913 5913 5913 5914 5914
5921 5922 5921 5920 5920 5919 5918 5917 5916 5915 5914 5912 5911 5910 5909 5908 5907 5907 5907 5907 5907 5906 5907 5907 5907 5907 5907 5907 5907 5908 5909 5910 5911 5911 5912 5913 5913 5913 5913 5914 5914 5914 5914 5914 5914 5914 5914 5914 5914
5923 5923 5922 5922 5921 5920 5920 5919 5918 5917 5916 5914 5913 5912 5910 5910 5909 5909 5909 5908 5908 5908 5908 5908 5908 5908 5908 5908 5908 5909 5910 5910 5911 5912 5913 5914 5914 5914 5914 5914 5914 5914 5914 5914 5914 5914 5914 5914 5914
5924 5924 5923 5923 5922 5922 5921 5920 5919 5918 5917 5916 5915 5913 5912 5912 5911 5911 5910 5910 5909 5909 5909 5909 5909 5909 5909 5909 5910 5910 5910 5911 5912 5913 5913 5914 5914 5914 5914 5915 5915 5915 5914 5914 5914 5914 5914 5914 5914
5925 5925 5924 5924 5923 5923 5922 5922 5921 5920 5919 5918 5916 5915 5914 5913 5913 5912 5912 5911 5911 5910 5910 5910 5910 5910 5910 5910 5910 5910 5911 5911 5912 5913 5914 5914 5915 5915 5915 5915 5915 5915 5915 5914 5914 5914 5914 5914 5914
5925 5926 5925 5925 5924 5924 5924 5923 5922 5921 5920 5919 5918 5917 5916 5915 5914 5914 5913 5913 5912 5911 5911 5911 5910 5910 5910 5911 5911 5911 5911 5912 5913 5913 5914 5915 5915 5915 5915 5915 5915 5915 5915 5915 5914 5914 5914 5914 5914
5926 5927 5927 5926 5925 5925 5926 5925 5923 5922 5921 5920 5919 5918 5917 5916 5915 5915 5914 5913 5913 5912 5912 5911 5911 5911 5911 5911 5911 5912 5912 5912 5913 5914 5914 5915 5915 5915 5915 5915 5915 5915 5915 5915 5914 5914 5914 5913 5913
5927 5928 5927 5926 5925 5925 5925 5925 5924 5923 5922 5921 5920 5919 5918 5917 5916 5916 5915 5914 5914 5913 5912 5912 5912 5912 5912 5912 5912 5912 5912 5913 5913 5914 5914 5915 5915 5916 5916 5916 5916 5915 5915 5915 5914 5914 5913 5913 5912
5927 5927 5926 5926 5925 5925 5925 5925 5924 5923 5922 5921 5920 5919 5918 5917 5917 5916 5915 5915 5914 5913 5913 5912 5912 5912 5912 5912 5912 5912 5913 5913 5913 5914 5914 5915 5915 5915 5915 5916 5916 5915 5915 5914 5913 5913 5912 5912 5911
5925 5925 5925 5925 5924 5924 5924 5924 5924 5923 5922 5921 5920 5919 5918 5918 5917 5916 5916 5915 5914 5914 5913 5913 5912 5912 5912 5912 5912 5912 5913 5913 5914 5914 5914 5915 5915 5915 5915 5915 5915 5915 5914 5913 5912 5912 5912 5911 5910
5923 5924 5924 5923 5922 5923 5923 5923 5923 5922 5922 5921 5920 5919 5918 5917 5917 5916 5915 5915 5914 5914 5914 5913 5912 5912 5912 5912 5912 5912 5912 5912 5913 5913 5914 5914 5914 5914 5914 5914 5914 5914 5913 5912 5911 5911 5910 5910 5909
5921 5922 5922 5922 5921 5921 5922 5923 5922 5922 5921 5920 5919 5918 5918 5917 5916 5915 5915 5914 5914 5914 5913 5913 5912 5912 5912 5911 5911 5911 5911 5912 5912 5913 5913 5913 5913 5913 5913 5913 5913 5912 5912 5911 5910 5910 5909 5908 5908
5918 5918 5919 5919 5920 5921 5921 5923 5921 5920 5919 5918 5918 5917 5917 5916 5916 5915 5914 5914 5913 5913 5913 5913 5912 5912 5911 5911 5911 5911 5911 5911 5911 5912 5912 5912 5912 5912 5912 5912 5912 5911 5910 5910 5909 5908 5907 5907 5906
5915 5915 5916 5916 5917 5918 5919 5920 5921 5918 5917 5917 5916 5915 5915 5915 5915 5914 5913 5913 5913 5912 5912 5911 5911 5911 5910 5910 5910 5910 5910 5910 5910 5910 5911 5911 5911 5911 5911 5911 5910 5910 5909 5908 5907 5906 5905 5905 5904
5911 5912 5913 5914 5915 5916 5916 5917 5917 5916 5915 5914 5914 5913 5913 5913 5913 5912 5912 5911 5911 5911 5910 5910 5910 5909 5909 5908 5908 5908 5908 5908 5909 5909 5909 5909 5909 5909 5909 5908 5908 5908 5907 5906 5905 5904 5904 5903 5902
5909 5911 5913 5913 5914 5914 5913 5912 5913 5912 5911 5911 5911 5911 5911 5911 5910 5910 5910 5909 5909 5908 5908 5908 5908 5907 5907 5906 5906 5906 5906 5906 5906 5907 5907 5907 5907 5906 5906 5906 5905 5905 5904 5903 5903 5902 5901 5900 5899
5905 5908 5910 5912 5913 5912 5909 5909 5910 5908 5908 5908 5908 5908 5908 5908 5908 5907 5907 5907 5906 5906 5905 5905 5905 5904 5903 5904 5904 5904 5904 5904 5904 5904 5904 5904 5904 5904 5903 5903 5902 5901 5901 5900 5900 5899 5898 5897 5896
5901 5903 5905 5907 5906 5907 5907 5906 5905 5905 5905 5905 5904 5905 5904 5905 5905 5904 5904 5904 5903 5903 5902 5902 5901 5901 5900 5901 5901 5900 5900 5901 5901 5901 5901 5901 5900 5900 5900 5899 5899 5898 5897 5896 5896 5895 5894 5893 5892
5897 5898 5900 5902 5902 5903 5904 5903 5903 5901 5901 5901 5901 5901 5901 5901 5901 5901 5900 5900 5900 5899 5899 5898 5898 5898 5897 5897 5897 5897 5897 5897 5897 5897 5897 5897 5896 5896 5896 5895 5894 5894 5893 5892 5891 5890 5890 5889 5888
5892 5893 5895 5896 5898 5899 5901 5903 5898 5897 5897 5897 5897 5896 5896 5896 5896 5896 5896 5896 5896 5895 5895 5895 5894 5894 5894 5894 5893 5893 5893 5892 5892 5892 5892 5892 5892 5891 5891 5890 5890 5889 5888 5887 5886 5885 5885 5884 5883
5887 5888 5890 5892 5892 5893 5895 5898 5892 5892 5892 5892 5892 5892 5892 5892 5892 5892 5891 5891 5891 5891 5891 5890 5890 5889 5889 5889 5889 5889 5889 5888 5888 5887 5887 5887 5887 5887 5886 5885 5884 5884 5883 5882 5881 5880 5879 5879 5878